Home > Time Zones > World Clock > Weather > Italy > Milan > Past weeks

Flag for Italy Weather past 2 weeks in Milan, Italy

Now
72 °F

Scattered clouds.


Feels Like: 77 °F
Forecast: 56 / 75 °F
Wind: 6 mph from South

Location: Milan / Linate

Current Time: May 27, 2015 at 2:43:37 PM

Latest Report: May 27, 2015 at 1:50 PM


Visibility: N/A

Pressure: 29.98 "Hg

Humidity: 50%

Dew point: 52 °F

Location of MilanLocation

Historic Weather in Milan — Graph

°F

Milan temperature yesterday

Maximum temperature yesterday: 73 °F (at 4:50 PM)
Minimum temperature yesterday: 59 °F (at 9:50 PM)
Average temperature yesterday: 65 °F

Past Weeks' High & Low Weather Summary

 TemperatureHumidityPressure
High84 °F (May 14, 3:50 PM)100% (May 15, 10:20 PM)30.24 "Hg (May 15, 10:20 PM)
Low50 °F (May 21, 5:50 AM)34% (May 25, 6:50 PM)29.56 "Hg (May 15, 12:20 PM)
Average66 °F69%29.91 "Hg
* Reported May 12 1:20 PM — May 27 1:20 PM, Milan, Weather by CustomWeather, © 2015

Note: Actual official high and low records may vary slightly from our data, if they occured in-between our weather recording intervals... More about our weather records

Advertising

Milan weather history for previous 24 hours

 ConditionsComfort  
Time TempWeatherWind HumidityBarometerVisibility
1:20 PM
Wed, May 27
72 °FScattered clouds.3 mph53%29.98 "HgN/A
12:50 PM72 °FPartly sunny.7 mph53%29.98 "HgN/A
12:20 PM70 °FPartly sunny.3 mph60%30.01 "HgN/A
11:50 AM68 °FPartly sunny.3 mph56%30.01 "HgN/A
11:20 AM68 °FScattered clouds.5 mph64%30.01 "HgN/A
10:50 AM66 °FPassing clouds.5 mph73%30.01 "HgN/A
10:20 AM64 °FPassing clouds.5 mph78%30.01 "HgN/A
9:50 AM64 °FPassing clouds.5 mph78%30.01 "HgN/A
9:20 AM64 °FPassing clouds.3 mph78%30.01 "HgN/A
8:50 AM63 °FPassing clouds.3 mph77%29.98 "HgN/A
8:20 AM63 °FPassing clouds.2 mph77%29.98 "HgN/A
7:50 AM61 °FPassing clouds.2 mph88%29.98 "HgN/A
7:20 AM59 °FPassing clouds.2 mph94%29.98 "HgN/A
6:50 AM57 °FSunny.2 mph100%29.95 "Hg10 mi
6:20 AM54 °FClear.2 mph100%29.95 "Hg10 mi
5:50 AM54 °FPassing clouds.1 mph100%29.95 "HgN/A
5:20 AM54 °FPassing clouds.3 mph100%29.95 "HgN/A
4:50 AM55 °FPassing clouds.2 mph94%29.92 "HgN/A
4:20 AM55 °FPassing clouds.2 mph100%29.92 "HgN/A
3:50 AM55 °FPassing clouds.2 mph100%29.92 "HgN/A
3:20 AM55 °FPassing clouds.3 mph100%29.92 "HgN/A
2:50 AM57 °FPassing clouds.5 mph94%29.95 "HgN/A
2:20 AM57 °FPassing clouds.3 mph94%29.95 "HgN/A
1:50 AM57 °FPassing clouds.5 mph94%29.95 "HgN/A
1:20 AM57 °FPassing clouds.5 mph94%29.95 "HgN/A
12:50 AM57 °FPassing clouds.2 mph94%29.95 "HgN/A
12:20 AM59 °FPassing clouds.5 mph88%29.95 "HgN/A
11:50 PM
Tue, May 26
59 °FPassing clouds.6 mph88%29.95 "HgN/A
11:20 PM59 °FThundershowers. Passing clouds.12 mph88%29.92 "HgN/A
10:50 PM59 °FThundershowers. Passing clouds.13 mph94%29.92 "HgN/A
10:20 PM59 °FThunderstorms. Partly cloudy.2 mph88%29.92 "HgN/A
9:50 PM59 °FThunderstorms. Broken clouds.10 mph82%29.89 "HgN/A
9:20 PM66 °FPartly sunny.14 mph60%29.86 "HgN/A
8:50 PM66 °FScattered clouds.No wind68%29.86 "HgN/A
8:20 PM66 °FThunderstorms. Scattered clouds.8 mph64%29.83 "HgN/A
7:50 PM66 °FThundershowers. Partly sunny.5 mph56%29.83 "HgN/A
7:20 PM70 °FThundershowers. Partly sunny.3 mph64%29.83 "HgN/A
6:50 PM70 °FScattered clouds.6 mph64%29.80 "HgN/A
6:20 PM72 °FScattered clouds.6 mph53%29.80 "HgN/A
5:50 PM72 °FScattered clouds.6 mph53%29.80 "HgN/A
5:20 PM73 °FPassing clouds.5 mph50%29.80 "HgN/A
4:50 PM73 °FPassing clouds.1 mph47%29.80 "HgN/A
4:20 PM72 °FScattered clouds.3 mph50%29.80 "HgN/A
3:50 PM72 °FScattered clouds.6 mph53%29.83 "HgN/A
3:20 PM72 °FScattered clouds.3 mph57%29.83 "HgN/A
2:50 PM72 °FPartly sunny.2 mph61%29.83 "HgN/A
Weather by CustomWeather, © 2015

See weather overviewHow to use our weather pages